This is the latest recevied weather packets stored in our database for station/object KC5AV. If no packets are shown the sender has not sent any weather packets the latest 10 day(s).
| Time | Temp. | Humidity | Pressure | Rain* | Wind** | Luminosity | Snow |
|---|---|---|---|---|---|---|---|
| 1777440827 | 22.22° C | 90% | 1012.3 hPa | 0 mm | - | 0 W/m² | - |
| 1777440523 | 22.78° C | 89% | 1012.6 hPa | 0 mm | - | 0 W/m² | - |
| 1777440219 | 22.78° C | 89% | 1012.6 hPa | 0 mm | - | 0 W/m² | - |
| 1777439916 | 22.78° C | 88% | 1012.6 hPa | 0 mm | - | 0 W/m² | - |
| 1777439612 | 22.78° C | 88% | 1012.8 hPa | 0 mm | - | 0 W/m² | - |
| 1777439307 | 22.78° C | 87% | 1013 hPa | 0 mm | - | 0 W/m² | - |
| 1777439002 | 23.33° C | 87% | 1012.7 hPa | 0 mm | - | 0 W/m² | - |
| 1777438701 | 23.33° C | 86% | 1012.8 hPa | 0 mm | - | 0 W/m² | - |
| 1777438396 | 23.33° C | 87% | 1012.4 hPa | 0 mm | - | 0 W/m² | - |
| 1777438092 | 23.33° C | 86% | 1012.7 hPa | 0 mm | - | 0 W/m² | - |
| 1777437789 | 23.33° C | 85% | 1012.7 hPa | 0 mm | - | 0 W/m² | - |
| 1777437489 | 23.33° C | 84% | 1012.7 hPa | 0 mm | - | 0 W/m² | - |
| 1777437182 | 23.89° C | 84% | 1012.8 hPa | 0 mm | - | 0 W/m² | - |
| 1777436878 | 23.89° C | 82% | 1012.7 hPa | 0 mm | - | 0 W/m² | - |
| 1777436576 | 24.44° C | 81% | 1012.9 hPa | 0 mm | - | 0 W/m² | - |
| 1777436271 | 24.44° C | 79% | 1012.7 hPa | 0 mm | - | 0 W/m² | - |
| 1777435968 | 25° C | 78% | 1012.8 hPa | 0 mm | - | 0 W/m² | - |
| 1777435665 | 25° C | 77% | 1012.6 hPa | 0 mm | - | 0 W/m² | - |
| 1777435361 | 25.56° C | 75% | 1012.8 hPa | 0 mm | - | 0 W/m² | - |
| 1777435059 | 25.56° C | 74% | 1012.9 hPa | 0 mm | - | 0 W/m² | - |
| 1777434757 | 26.11° C | 73% | 1012.8 hPa | 0 mm | - | 0 W/m² | - |
| 1777434455 | 26.11° C | 73% | 1012.5 hPa | 0 mm | - | 0 W/m² | - |
| 1777434154 | 26.11° C | 72% | 1012.1 hPa | 0 mm | - | 0 W/m² | - |
| 1777433850 | 25.56° C | 72% | 1012.4 hPa | 0 mm | - | 0 W/m² | - |
| 1777433547 | 25.56° C | 74% | 1011.5 hPa | 0 mm | - | 0 W/m² | - |
* Rain latest hour (hover to see other rain measurements)
** Current wind speed in m/s (hover to see current wind gust speed)